Tracking 29511 objects as of 15-Sep-2024
HD Live streaming from Space Station
objects crossing your sky now

ONEWEB-0050

Track ONEWEB-0050 now!
10-day predictions
ONEWEB-0050 is classified as:


NORAD ID: 45453
Int'l Code: 2020-020AF
Perigee: 598.7 km
Apogee: 605.5 km
Inclination: 88.0 °
Period: 96.6 minutes
Semi major axis: 6973 km
RCS: Unknown
Launch date: March 21, 2020
Source: United Kingdom (UK)
Launch site: TYURATAM MISSILE AND SPACE COMPLEX (TTMTR)
Your satellite tracking list
Your tracking list is empty




NASA's NSSDC Master Catalog

Two Line Element Set (TLE):
1 45453U 20020AF  24258.84411751  .00004473  00000-0  45077-3 0  9991
2 45453  88.0083   5.4297 0004913 110.9220 249.2535 14.90950566244970
Source of the keplerian elements: AFSPC